Stove Prairie

Current Conditions

Time10/23/2021 09:00 AM MST
Location40.619167,-105.356944
Elevation7,349 FT
Air Temp50°F
Surface Temp46°F
Dew Point Temp14°F
PrecipitationNone None
Relative Humidity23%
Visibility6,562 FT
Pressure771 MB

Click a photo to enlarge.

174°4 mph
Wind from @ 4 mph

Past 24 Hours

All Data

Previous 24h observations for Stove Prairie
Time Air Temp
(°F)
Surface
(°F)
Dew Point
(°F)
Precip. Relative
Humidity
Wind
Direction
Wind
Speed (mph)
Visibility (ft) Pressure
(mb)
09:00 AM504614None23S46,562771
08:45 AM504513None23SSW16,562771
08:30 AM504414None23S16,562771
08:15 AM494412None22SE46,562771
08:00 AM484410None21N06,562771
07:45 AM474210None21SE46,562771
07:30 AM484310None21NNE16,562771
07:15 AM464110None22N06,562771
07:00 AM484010None22SE46,562771
06:45 AM494110None20ESE26,562771
06:30 AM50419None19SSE16,562771
06:15 AM514310None19NNW36,562771
06:00 AM50429None19ESE36,562771
05:45 AM514210None19SSW26,562771
05:30 AM52449None18N06,562771
05:15 AM524410None18NE36,562771
05:00 AM514410None19SW36,562771
04:45 AM51439None18ENE16,562771
04:30 AM50418None17NNE26,562771
04:15 AM54438None16SE46,562771
04:00 AM53428None16SSE36,562771
03:45 AM54447None15ESE56,562771
03:30 AM53457None15WSW26,562772
03:15 AM52467None16N66,562772
03:00 AM46429None22NNW46,562772
02:45 AM49418None20NNE46,562772
02:30 AM49419None19SW26,562772
02:15 AM49429None19N06,562772
02:00 AM54409None16NNW26,562772
01:45 AM54439None16NNW26,562772
01:30 AM55458None15WSW46,562772
01:15 AM52468None16NW36,562772
01:00 AM53489None16NNW26,562772
12:45 AM49489None19SSE26,562772
12:30 AM464713None26NNE16,562773
12:15 AM444315None31WNW36,562773
12:00 AM464515None29NNE26,562773
11:45 PM454615None31NW26,562773
11:30 PM464516None29NNW36,562773
11:15 PM484715None27N26,562773
11:00 PM484715None26N06,562773
10:45 PM494915None26N06,562774
10:30 PM504916None25N06,562774
10:15 PM505016None25ESE36,562774
10:00 PM504916None25N06,562774
09:45 PM495115None26E26,562774
09:30 PM505115None25N06,562774
09:15 PM505015None25N06,562774
09:00 PM515115None23N06,562774
08:45 PM525116None23W16,562775
08:30 PM535315None22N06,562775
08:15 PM535216None22SSE26,562775
08:00 PM525516None23SSE16,562775
07:45 PM525515None23N06,562775
07:30 PM515415None23N06,562775
07:15 PM515416None24N06,562775
07:00 PM525515None23ESE26,562775
06:45 PM535515None22N06,562775
06:30 PM555515None21N06,562775
06:15 PM565616None21SSE16,562775
06:00 PM565816None20S46,562775
05:45 PM575816None20S66,562775
05:30 PM586016None19S86,562775
05:15 PM606217None18S76,562775
05:00 PM606317None18SSE106,562775
04:45 PM606417None18S66,562775
04:30 PM606418None19S66,562775
04:15 PM596418None20S96,562775
04:00 PM616518None19SSW36,562776
03:45 PM606918None19S96,562775
03:30 PM616717None18S66,562776
03:15 PM637317None17WSW26,562776
03:00 PM647516None16NNW36,562776
02:45 PM638116None16NW26,562776
02:30 PM638516None16NNE66,562776
02:15 PM648716None16NNW76,562776
02:00 PM638716None16NNW66,562776
01:45 PM648516None15NNW46,562777
01:30 PM638315None15NW46,562777
01:15 PM638215None15NW26,562777
01:00 PM638116None16NW66,562777
12:45 PM627916None17N66,562777
12:30 PM627717None17N46,562778
12:15 PM627517None18NNE46,562778
12:00 PM617417None18NNW56,562778
11:45 AM637318None18N26,562778
11:30 AM607117None18NNW66,562778
11:15 AM606917None18NW56,562778
11:00 AM606617None18NW56,562779
10:45 AM606318None19NNW66,562779
10:30 AM606117None19NNW56,562779
10:15 AM595818None20WNW46,562779
10:00 AM585618None21WNW46,562779
09:45 AM575318None21NW56,562779
09:30 AM575018None21NW76,562779
09:15 AM574718None21NW46,562779

Red Feather Lakes

Current Conditions

Time10/23/2021 09:00 AM MST
Location40.790278,-105.574167
Elevation8,238 FT
Air Temp38°F
Surface Temp43°F
Dew Point Temp15°F
Relative Humidity39%
Visibility6,562 FT
Pressure746 MB

Click a photo to enlarge.

280°1 mph
Wind from @ 1 mph

Past 24 Hours

All Data

Previous 24h observations for Red Feather Lakes
Time Air Temp
(°F)
Surface
(°F)
Dew Point
(°F)
Precip. Relative
Humidity
Wind
Direction
Wind
Speed (mph)
Visibility (ft) Pressure
(mb)
09:00 AM38431539W16,562746
08:45 AM36431540WSW56,562746
08:30 AM35411442W46,562746
08:15 AM33411342WNW26,562746
08:00 AM34371341W66,562746
07:45 AM38411335SE46,562746
07:30 AM36411237WSW26,562746
07:15 AM34371240W46,562746
07:00 AM36371236W26,562746
06:45 AM37371235W46,562746
06:30 AM39361232W46,562746
06:15 AM38371133NE16,562746
06:00 AM41381129N06,562746
05:45 AM40361129W36,562746
05:30 AM41351129SW36,562746
05:15 AM44381126SSW26,562746
05:00 AM44381025SE26,562746
04:45 AM44391228E76,562746
04:30 AM42401027ENE26,562746
04:15 AM41381028SW66,562746
04:00 AM41361028WSW86,562747
03:45 AM41371128W96,562746
03:30 AM46461123S76,562747
03:15 AM31381040W56,562747
03:00 AM38351031W76,562747
02:45 AM39381030SSW36,562747
02:30 AM41311027W76,562747
02:15 AM49421122SSE76,562747
02:00 AM47411122SSW56,562747
01:45 AM47411022SW76,562747
01:30 AM50401020SW126,562747
01:15 AM4943920S136,562747
01:00 AM4946920SSW76,562747
12:45 AM48401021WSW56,562748
12:30 AM4539923WSW96,562748
12:15 AM4645922SW76,562748
12:00 AM43441127WSW46,562748
11:45 PM42441431N06,562748
11:30 PM44461328WNW16,562748
11:15 PM45461428NE36,562749
11:00 PM46471427W36,562749
10:45 PM46501428NE26,562749
10:30 PM45511529WSW26,562749
10:15 PM45511530N06,562749
10:00 PM43511533NNE26,562749
09:45 PM41511637N06,562749
09:30 PM41491637WNW46,562749
09:15 PM43491734W46,562749
09:00 PM43511734WNW36,562749
08:45 PM44511733W36,562750
08:30 PM46511630SW46,562750
08:15 PM47551528NNE16,562750
08:00 PM48531628W36,562750
07:45 PM48541627N06,562750
07:30 PM49511627WSW46,562750
07:15 PM48551526N06,562750
07:00 PM51561624ESE56,562750
06:45 PM50581525SSW26,562750
06:30 PM52571623E26,562750
06:15 PM53591622N06,562750
06:00 PM54611622NNW46,562751
05:45 PM55621621NNE36,562751
05:30 PM55631621NNW46,562751
05:15 PM56651520W76,562751
05:00 PM58691619NW56,562751
04:45 PM57711620NNW56,562751
04:30 PM57701720NW86,562751
04:15 PM57701720W136,562751
04:00 PM59771720NW96,562751
03:45 PM57761720WSW86,562751
03:30 PM58791720W56,562751
03:15 PM58821820W146,562751
03:00 PM57761721NW116,562751
02:45 PM59821820NW106,562751
02:30 PM58861821NNW96,562751
02:15 PM58861821W136,562752
02:00 PM58851720WNW166,562752
01:45 PM58841720NNW136,562752
01:30 PM58841720NW156,562752
01:15 PM57831620NW86,562752
01:00 PM57821821NW96,562753
12:45 PM57821721SW116,562753
12:30 PM57801822NW106,562753
12:15 PM57781721W106,562753
12:00 PM56761822W126,562753
11:45 AM56741822WNW116,562753
11:30 AM56721823W136,562753
11:15 AM55681823NW126,562754
11:00 AM54651925NW136,562754
10:45 AM54642026W66,562754
10:30 AM53611926W96,562754
10:15 AM52581927WSW96,562754
10:00 AM51551928WSW136,562754
09:45 AM51521928WSW176,562754
09:30 AM50501929WSW136,562754
09:15 AM49471930W136,562754

Pinewood Reservoir

Current Conditions

Time10/23/2021 09:00 AM MST
Location40.3647,-105.2867
Elevation6,580 FT
Air Temp51°F
Surface Temp51°F
Dew Point Temp12°F
PrecipitationNone None
Relative Humidity21%
Visibility6,562 FT
Pressure787 MB
Level of Grip82.0
State of Surface4.0

Click a photo to enlarge.

255°3 mph
Wind from @ 3 mph

Past 24 Hours

All Data

Previous 24h observations for Pinewood Reservoir
Time Air Temp
(°F)
Surface
(°F)
Dew Point
(°F)
Precip. Relative
Humidity
Wind
Direction
Wind
Speed (mph)
Visibility (ft) Pressure
(mb)
Level of GripState Surface
09:00 AM515112None21WSW36,562787824
08:45 AM494911None21WSW46,562787824
08:30 AM514812None21WSW46,562787824
08:15 AM474711None23SW46,562787824
08:00 AM494711None21SSW36,562787824
07:45 AM504711None20WSW26,562787824
07:30 AM514611None20SSW36,562787824
07:15 AM524611None19W36,562787824
07:00 AM524711None19SW36,562787824
06:45 AM524811None19WNW46,562787824
06:30 AM554711None18SSE56,562787824
06:15 AM544811None18NNE46,562787824
06:00 AM554912None18SSW26,562787824
05:45 AM554912None18SE86,562787824
05:30 AM575013None18SW126,562787824
05:15 AM575013None18WSW146,562787824
05:00 AM565013None18SW166,562787824
04:45 AM575013None17SW206,562787824
04:30 AM575014None18WSW226,562787824
04:15 AM575014None19WSW266,562786824
04:00 AM575015None19WSW306,562786824
03:45 AM575014None18WSW286,562787824
03:30 AM585013None17WSW276,562787824
03:15 AM585012None16WSW236,562787824
03:00 AM584911None15SW196,562787824
02:45 AM585013None17WSW266,562787824
02:30 AM584913None17WSW206,562787824
02:15 AM564811None17SW156,562787824
02:00 AM564911None16SW106,562787824
01:45 AM514812None20SW66,562788824
01:30 AM514713None21SSW46,562788824
01:15 AM514713None22WSW46,562788824
01:00 AM474614None26WSW56,562788824
12:45 AM535012None20WNW26,562788824
12:30 AM534913None21SW26,562788824
12:15 AM504814None23WNW36,562789824
12:00 AM514814None23WSW46,562789824
11:45 PM535114None22WSW26,562789824
11:30 PM515016None25SW26,562789824
11:15 PM494916None26SSW46,562789824
11:00 PM535116None23W56,562789824
10:45 PM495016None26WSW46,562789824
10:30 PM504916None26WSW46,562789824
10:15 PM525116None24WSW66,562790824
10:00 PM495116None27S46,562790824
09:45 PM515117None25SSW46,562790824
09:30 PM545316None22WSW46,562790824
09:15 PM555416None21W36,562790824
09:00 PM565517None21SSW36,562790824
08:45 PM565517None21SW36,562790824
08:30 PM585517None20SW36,562791824
08:15 PM585617None20WSW46,562791824
08:00 PM575817None20SSE46,562791824
07:45 PM545716None22WSW26,562791824
07:30 PM545616None22W56,562791824
07:15 PM555916None21W36,562791824
07:00 PM555816None21SW46,562791824
06:45 PM575916None20W36,562791824
06:30 PM586016None19WSW36,562791824
06:15 PM596116None18W36,562791824
06:00 PM606416None18WNW26,562791824
05:45 PM606416None18SW26,562791824
05:30 PM616616None17N06,562791824
05:15 PM626816None17E26,562791824
05:00 PM626916None17ENE66,562791824
04:45 PM627117None17ENE76,562791824
04:30 PM637417None16ENE76,562791824
04:15 PM637416None16SE46,562791824
04:00 PM637616None16E66,562791824
03:45 PM647916None16ENE76,562791824
03:30 PM638216None16ENE86,562791824
03:15 PM648317None16ENE76,562792824
03:00 PM648517None17SE106,562792824
02:45 PM648518None17SE56,562792824
02:30 PM648717None17ESE76,562792824
02:15 PM648619None17S96,562792824
02:00 PM638618None17SE66,562792824
01:45 PM648616None16SE96,562792824
01:30 PM638617None17ESE66,562793824
01:15 PM628516None17E106,562793824
01:00 PM628617None17ESE86,562793824
12:45 PM628519None19ESE76,562793824
12:30 PM628417None18E106,562794824
12:15 PM638216None16E86,562794824
12:00 PM628216None17E66,562794824
11:45 AM628015None16NE106,562794824
11:30 AM607816None18ENE86,562794824
11:15 AM607517None18ENE86,562794824
11:00 AM597318None20NE76,562795824
10:45 AM587018None21NE86,562795824
10:30 AM576818None22ENE66,562795824
10:15 AM596716None18E46,562795824
10:00 AM586417None20ENE66,562795824
09:45 AM596117None19E96,562795824
09:30 AM595817None20ENE36,562795824
09:15 AM595616None18SSW66,562795824

Masonville

Current Conditions

Time10/23/2021 09:00 AM MST
Location40.4875,-105.2108
Elevation5,387 FT
Air Temp47°F
Surface Temp52°F
Dew Point Temp19°F
PrecipitationNone None
Relative Humidity33%
Visibility6,562 FT
Pressure828 MB

Click a photo to enlarge.

2 mph
Wind from @ 2 mph

Past 24 Hours

All Data

Previous 24h observations for Masonville
Time Air Temp
(°F)
Surface
(°F)
Dew Point
(°F)
Precip. Relative
Humidity
Wind
Direction
Wind
Speed (mph)
Visibility (ft) Pressure
(mb)
09:00 AM475219None33N26,562828
08:45 AM465018None32E26,562828
08:30 AM455018None34N26,562828
08:15 AM454918None33N36,562828
08:00 AM454817None32NW66,562828
07:45 AM454817None33N26,562828
07:30 AM454717None32NNW46,562828
07:15 AM474717None31ESE26,562828
07:00 AM474816None28N26,562828
06:45 AM474918None30NNE16,562828
06:30 AM484815None27E36,562828
06:15 AM505014None24E36,562828
06:00 AM515016None25SSE66,562828
05:45 AM534914None21WNW46,562827
05:30 AM534813None20E56,562827
05:15 AM595214None17NW86,562827
05:00 AM585215None18WNW106,562827
04:45 AM544915None21WNW66,562828
04:15 AM494916None27NE46,562828
04:00 AM495016None26NE36,562828
03:45 AM494917None27SW26,562828
03:30 AM505016None26NNW96,562828
03:15 AM484917None29NNE46,562828
03:00 AM474918None30SW26,562828
02:45 AM495117None28ENE56,562828
02:30 AM485017None29ENE36,562828
02:15 AM485017None28NE46,562828
02:00 AM484917None29NE26,562828
01:45 AM504917None27NE26,562828
01:30 AM32513226NW40828
01:15 AM505118None27NNW26,562828
01:00 AM514918None27E26,562828
12:45 AM515119None27NW46,562829
12:30 AM505118None29N36,562829
12:15 AM515119None28NW20829
12:00 AM525219None27N16,562829
11:45 PM515219None28N06,562829
11:30 PM535319None27ENE26,562829
11:15 PM525419None27ENE26,562830
11:00 PM545420None26W26,562830
10:45 PM535519None26NNW26,562830
10:30 PM525619None27N06,562830
10:15 PM525519None28WNW26,562830
09:45 PM535619None27N26,562831
09:31 PM535620None26N06,562831
09:15 PM525619None27NW26,562831
09:00 PM525619None27WSW26,562831
08:45 PM525719None27N06,562831
08:30 PM535719None26N06,562831
08:15 PM545919None25W36,562831
08:00 PM545919None25NNW36,562831
07:45 PM546019None25N06,562831
07:30 PM546019None25N06,562831
07:15 PM566019None24N06,562831
07:00 PM586120None22N06,562831
06:45 PM616319None19N06,562831
06:30 PM636419None18NW26,562831
06:15 PM646619None17NE26,562831
06:00 PM656819None17N06,562831
05:45 PM676919None16N06,562831
05:30 PM687120None15SE16,562831
05:15 PM697319None15SE26,562831
05:00 PM707519None15SE36,562831
04:45 PM717719None14SE46,562831
04:30 PM707819None14SE56,562831
04:15 PM707920None15SSE56,562831
04:00 PM718219None14SE56,562832
03:45 PM718720None14SSE76,562832
03:30 PM718820None14ESE66,562832
03:15 PM718821None15SSE66,562832
03:00 PM698321None16SSE76,562832
02:45 PM719122None16SSE76,562832
02:30 PM709121None15SSE106,562832
02:15 PM709221None15SSE86,562832
02:00 PM699221None16SE76,562833
01:45 PM699122None17SSE86,562833
01:30 PM699121None16SSE86,562833
01:15 PM689020None16ESE66,562833
01:00 PM688924None19SSE116,562834
12:45 PM678824None20SE86,562834
12:30 PM678723None19SSE66,562834
12:15 PM678520None17SE56,562834
12:00 PM678422None18SE56,562835
11:45 AM668221None18SE56,562835
11:30 AM647921None19SE56,562835
11:15 AM637722None20S66,562835
11:00 AM637423None21ESE46,562835
10:45 AM627223None22SSE26,562836
10:30 AM626923None22SSE56,562836
10:15 AM616621None22SSE56,562836
10:00 AM596321None23SSE56,562836
09:45 AM585921None24N06,562836
09:30 AM565622None27SSE26,562836
09:15 AM555223None29W26,562836

Show All Locations

Page refreshes in :